Weather History for Mazatlan Airport, Mexico

Change the Weather History Date:

Saturday, March 2, 2013

  Actual Average Record
Temperature  
Mean Temperature 64 °F -  
Max Temperature 87 °F 78 °F 87 °F (2013)
Min Temperature 42 °F 51 °F 42 °F (2013)
Growing Degree Days 14 (Base 50)    
Moisture  
Dew Point 41 °F    
Average Humidity 50    
Maximum Humidity 93    
Minimum Humidity 18    
Precipitation  
Precipitation 0.00 in - - ()
Sea Level Pressure  
Sea Level Pressure 29.94 in    
Wind  
Wind Speed 8 mph ()    
Max Wind Speed 16 mph    
Max Gust Speed -    
Visibility 12.0 miles    
Events      
Averages and records for this station are not official NWS values.
T = Trace of Precipitation, MM = Missing Value Source: Averaged Metar Reports

Daily Weather History Graph

Daily Weather History Graph

Search for Another Location

Airport:

Trip Planner

Search our weather history database for the weather conditions in past years. The results will help you decide how hot, cold, wet, or windy it might be!

Date:

Astronomy

Mar. 02, 2013 Rise Set
Actual Time 6:25 AM MST 6:08 PM MST
Civil Twilight 6:02 AM MST 6:31 PM MST
Nautical Twilight 5:36 AM MST 6:57 PM MST
Astronomical Twilight 5:10 AM MST 7:23 PM MST
Moon 11:08 PM MST (3/2) 9:35 AM MST (3/2)
Length of Visible Light 12h 28m
Length of Day
11h 43m
Waning Gibbous, 73% of the Moon is Illuminated
Mar 2
Waning Gibbous
Mar 4
Last Quarter
Mar 11
New
Mar 19
First Quarter
Mar 27
Full

Hourly Weather History & Observations

Time (MST) Temp. Windchill Dew Point Humidity Pressure Visibility Wind Dir Wind Speed Gust Speed Precip Events Conditions
12:42 AM 50.0 °F - 44.6 °F 82% 29.90 in 10.0 mi North 8.1 mph - N/A   Clear
1:44 AM 48.2 °F - 44.6 °F 87% 29.89 in 10.0 mi North 9.2 mph - N/A   Clear
2:40 AM 46.4 °F 45.2 °F 42.8 °F 87% 29.90 in 10.0 mi North 3.5 mph - N/A   Clear
3:42 AM 44.6 °F 39.7 °F 42.8 °F 93% 29.92 in 10.0 mi NNE 9.2 mph - N/A   Clear
4:45 AM 46.4 °F 41.1 °F 42.8 °F 87% 29.94 in 10.0 mi North 11.5 mph - N/A   Clear
5:40 AM 44.6 °F 40.2 °F 42.8 °F 93% 29.95 in 10.0 mi NNE 8.1 mph - N/A   Clear
6:42 AM 42.8 °F 37.5 °F 41.0 °F 93% 29.97 in 10.0 mi NNE 9.2 mph - N/A   Clear
7:44 AM 51.8 °F - 39.2 °F 62% 30.01 in 12.0 mi NNE 8.1 mph - N/A   Clear
8:41 AM 64.4 °F - 51.8 °F 64% 30.02 in 14.0 mi South 8.1 mph - N/A   Clear
9:43 AM 73.4 °F - 53.6 °F 50% 30.01 in 14.0 mi ESE 5.8 mph - N/A   Clear
10:50 AM 86.0 °F - 42.8 °F 22% 29.99 in 15.0 mi SE 8.1 mph - N/A   Clear
11:44 AM 87.8 °F - 39.2 °F 18% 29.97 in 15.0 mi WSW 8.1 mph - N/A   Clear
12:55 PM 86.0 °F - 44.6 °F 23% 29.95 in 15.0 mi WSW 13.8 mph - N/A   Clear
1:41 PM 86.0 °F - 46.4 °F 25% 29.92 in 15.0 mi SW 13.8 mph - N/A   Clear
2:41 PM 82.4 °F - 39.2 °F 21% 29.91 in 15.0 mi WSW 16.1 mph - N/A   Clear
3:42 PM 82.4 °F - 39.2 °F 21% 29.89 in 15.0 mi WSW 15.0 mph - N/A   Clear
4:43 PM 80.6 °F - 37.4 °F 21% 29.91 in 15.0 mi WSW 10.4 mph - N/A   Clear
5:41 PM 75.2 °F - 37.4 °F 25% 29.90 in 12.0 mi WSW 8.1 mph - N/A   Clear
6:44 PM 69.8 °F - 37.4 °F 31% 29.92 in 10.0 mi NW 10.4 mph - N/A   Clear
7:42 PM 69.8 °F - 37.4 °F 31% 29.95 in 10.0 mi West 8.1 mph - N/A   Clear
8:41 PM 64.4 °F - 35.6 °F 34% 29.95 in 10.0 mi WNW 8.1 mph - N/A   Clear
9:47 PM 59.0 °F - 28.4 °F 31% 29.96 in 10.0 mi WNW 9.2 mph - N/A   Clear
10:42 PM 55.4 °F - 33.8 °F 44% 29.99 in 10.0 mi North 6.9 mph - N/A   Clear
11:41 PM 53.6 °F - 35.6 °F 51% 29.95 in 10.0 mi WNW 5.8 mph - N/A   Clear